STARLINK-32637, 62032

Orbit data source: Space-Track

STARLINK-32637, 62032 is a payload satellite owned by SpaceX/Seattle (US) in LEO that was launched on Thu, 21 Nov 2024 UTC via an FALCON 9 launch vehicle from the Air Force Eastern Test Range (AFETR). Payload-class satellites include a variety of spacecraft equipped with specific instruments for various scientific and technological missions. These include communications satellites like Starlink; space stations such as the ISS; scientific satellites like the Hubble; Earth observation satellites from companies like Planet Labs, Umbra, and HawkEye 360; GPS; miniature CubeSats for education and research; and military/defense satellites.

Loading next visibility...
Identifier
62032, 2024-216A
Orbit
LEO
Country
Flag of USUS
Related business
Manufacturer
SpaceX/Seattle
Mission
Operational Commercial Communications
Bus & Motor
STARLINK V2M, Unknown motor
Mass
730 kg wet, ~700 kg dry
Launch date (UTC)
2024-11-21 (2 years ago)
Launch vehicle
FALCON 9
Launch site
Air Force Eastern Test Range (AFETR)
Object type
Payload
Rocket body
Debris
Shape & HBR
Box + 2 Pan, 17.7 m
Radar Cross Section
33.884 m², Large (>1 m²)

Expand to show TLE details & history
Last TLE update: 11 hours ago

TLE from 11 hours ago
0 STARLINK-32637
1 62032U 24216A   26177.90760390  .00027543  00000-0  10070-2 0  9996
2 62032  43.0001 359.1301 0001599 276.6903  83.3767 15.27570344 90586
Epoch: 2026-06-26T21:46Z
TLE epoch observation values (Epoch: 2026-06-26T21:46:56.976Z)
Latitude
-0.00001°
Longitude
117.36331°
Altitude
482.727 km
Speed
7.626 km/s
True Right ascension
23h 56m 31s
True Declination
0° 00' 00"
Sunlit
Object was in daylight at epoch
Visualization orbit readout
Latitude
Unknown
Longitude
Unknown
Altitude
Unknown
Speed
Unknown
Apparent Right ascension
Unknown
Apparent Declination
Unknown
Sunlit
N/A
Visualization observer readout
Local Sidereal Time
20:26:11
Azimuth
Unknown
Elevation
Unknown
Doppler factor
Unknown
Orbital elements
Apogee altitude
486.121 km
Perigee altitude
483.926 km
Semi-major axis
6,863.16 km
Eccentricity
0.00016
Inclination
43.0001°
RAAN
359.1301°
Arg. of periapsis
276.6903°
True anomaly
83.3949°
Mean anomaly
83.3767°
Eccentric anomaly
83.3858°
Mean motion
3.81731 °/min
Orbital period
94.31 mins
BSTAR
0.001007
Loading maneuver chart data...
Computing Atmospheric mass density...
Loading historical data...
Loading historical data...
Loading historical data...
Loading historical data...
Loading historical data...
Loading historical data...
Loading historical data...

Documentation

Showing up to 5 results
|